Simultaneous Nadir Overpasses (SNOs) Predictions

Prediction of SNOs between GOES-17 and NOAA-19 Satellite Orbit:

Table of predicted SNOs for the next 14.0 days since TLE Epoch: 8/21/2020
Index Date Time (GOES-17) GOES-17 Lat,Lon NOAA-19 Lat,Lon Distance(km) Time Diff (sec)
1 08/23/2020 15:22:07 0.00,-137.17 0.55,-139.42 256.69 80
2 08/24/2020 15:13:05 0.01,-137.17 -0.13,-136.56 68.70 80
3 08/25/2020 15:01:24 0.01,-137.16 -0.81,-133.71 393.87 80
4 08/28/2020 03:19:41 0.01,-137.12 -0.33,-138.67 176.32 80
5 08/29/2020 03:10:40 0.02,-137.10 0.34,-135.81 148.12 80
6 08/30/2020 02:58:58 0.01,-137.09 0.96,-132.95 472.65 80
7 08/31/2020 15:28:57 -0.01,-137.07 0.86,-140.76 421.17 80
8 09/01/2020 15:17:15 -0.01,-137.05 0.17,-137.90 96.71 80
9 09/02/2020 15:08:13 -0.01,-137.04 -0.46,-135.04 227.75 80
